This is the latest recevied weather packets stored in our database for station/object KC1OEK-13. If no packets are shown the sender has not sent any weather packets the latest 10 day(s).
| Time | Temp. | Humidity | Pressure | Rain* | Wind** | Luminosity | Snow |
|---|---|---|---|---|---|---|---|
| 1787402150 | 17.78° C | 96% | 1020.9 hPa | 0 mm | - | 191 W/m² | - |
| 1787401845 | 17.78° C | 97% | 1020.5 hPa | 0 mm | - | 143 W/m² | - |
| 1787401542 | 17.22° C | 97% | 1020.8 hPa | 0 mm | - | 117 W/m² | - |
| 1787401237 | 17.78° C | 98% | 1020.4 hPa | 0 mm | - | 98 W/m² | - |
| 1787400933 | 17.22° C | 99% | 1020.6 hPa | 0 mm | - | 105 W/m² | - |
| 1787400632 | 17.22° C | 99% | 1020.6 hPa | 0 mm | - | 90 W/m² | - |
| 1787400328 | 16.67° C | 99% | 1020.5 hPa | 0 mm | - | 76 W/m² | - |
| 1787400027 | 17.22° C | 99% | 1020.7 hPa | 0 mm | - | 87 W/m² | - |
| 1787399724 | 16.67° C | 99% | 1020.6 hPa | 0 mm | - | 81 W/m² | - |
| 1787399420 | 16.67° C | 99% | 1020.7 hPa | 0 mm | - | 78 W/m² | - |
| 1787399120 | 16.67° C | 99% | 1020.6 hPa | 0 mm | - | 67 W/m² | - |
| 1787398815 | 16.67° C | 99% | 1020.6 hPa | 0 mm | - | 69 W/m² | - |
| 1787398511 | 16.67° C | 99% | 1020.8 hPa | 0 mm | - | 49 W/m² | - |
| 1787398207 | 16.67° C | 99% | 1020.5 hPa | 0 mm | - | 39 W/m² | - |
| 1787397902 | 16.67° C | 99% | 1020.6 hPa | 0 mm | - | 31 W/m² | - |
| 1787397596 | 16.67° C | 99% | 1020.7 hPa | 0 mm | - | 31 W/m² | - |
| 1787397291 | 16.67° C | 99% | 1020.4 hPa | 0 mm | - | 36 W/m² | - |
| 1787396990 | 16.67° C | 99% | 1020.5 hPa | 0 mm | - | 31 W/m² | - |
| 1787396687 | 16.67° C | 99% | 1020.3 hPa | 0 mm | - | 26 W/m² | - |
| 1787396382 | 16.67° C | 99% | 1020.3 hPa | 0 mm | - | 27 W/m² | - |
| 1787396081 | 16.67° C | 99% | 1020.2 hPa | 0 mm | - | 19 W/m² | - |
| 1787395776 | 16.11° C | 99% | 1020.3 hPa | 0 mm | - | 16 W/m² | - |
| 1787395471 | 16.67° C | 99% | 1020.2 hPa | 0 mm | - | 16 W/m² | - |
| 1787395166 | 16.11° C | 99% | 1020.4 hPa | 0 mm | - | 15 W/m² | - |
| 1787394861 | 16.11° C | 99% | 1020.3 hPa | 0 mm | - | 13 W/m² | - |
* Rain latest hour (hover to see other rain measurements)
** Current wind speed in m/s (hover to see current wind gust speed)